TimeEDT,TemperatureF,Dew PointF,Humidity,Sea Level PressureIn,VisibilityMPH,Wind Direction,Wind SpeedMPH,Gust SpeedMPH,PrecipitationIn,Events,Conditions,WindDirDegrees,DateUTC
12:53 AM,66.9,57.9,73,29.93,10.0,NNW,5.8,-,N/A,,Mostly Cloudy,330,2013-06-14 04:53:00
1:53 AM,68.0,54.0,61,29.94,10.0,North,8.1,-,N/A,,Mostly Cloudy,10,2013-06-14 05:53:00
2:53 AM,64.9,54.0,68,29.93,10.0,North,5.8,-,N/A,,Clear,350,2013-06-14 06:53:00
3:53 AM,63.0,54.0,72,29.94,10.0,NNW,5.8,-,N/A,,Clear,330,2013-06-14 07:53:00
4:53 AM,63.0,55.0,75,29.95,10.0,NNW,8.1,-,N/A,,Overcast,330,2013-06-14 08:53:00
5:53 AM,60.1,54.0,80,29.96,10.0,NNW,5.8,-,N/A,,Clear,330,2013-06-14 09:53:00
6:53 AM,62.1,54.0,75,29.98,10.0,NNW,8.1,-,N/A,,Clear,340,2013-06-14 10:53:00
7:53 AM,64.0,53.1,67,30.00,10.0,North,8.1,-,N/A,,Clear,360,2013-06-14 11:53:00
8:53 AM,66.9,54.0,63,30.02,10.0,North,9.2,-,N/A,,Clear,350,2013-06-14 12:53:00
9:53 AM,68.0,54.0,61,30.05,10.0,NNW,9.2,-,N/A,,Clear,340,2013-06-14 13:53:00
10:53 AM,72.0,55.0,55,30.06,10.0,NNW,10.4,-,N/A,,Clear,340,2013-06-14 14:53:00
11:53 AM,73.0,54.0,51,30.06,10.0,North,12.7,-,N/A,,Clear,350,2013-06-14 15:53:00
12:53 PM,75.0,55.0,50,30.06,10.0,North,9.2,-,N/A,,Clear,350,2013-06-14 16:53:00
1:53 PM,75.9,54.0,46,30.06,10.0,NNW,8.1,-,N/A,,Clear,330,2013-06-14 17:53:00
2:53 PM,78.1,54.0,43,30.04,10.0,NW,10.4,17.3,N/A,,Clear,320,2013-06-14 18:53:00
3:53 PM,79.0,54.0,42,30.03,10.0,NW,8.1,-,N/A,,Partly Cloudy,320,2013-06-14 19:53:00
4:53 PM,79.0,53.1,40,30.03,10.0,NW,6.9,-,N/A,,Clear,320,2013-06-14 20:53:00
5:53 PM,79.0,50.0,36,30.04,10.0,NNW,4.6,-,N/A,,Clear,330,2013-06-14 21:53:00
6:53 PM,78.1,52.0,40,30.03,10.0,North,6.9,-,N/A,,Partly Cloudy,360,2013-06-14 22:53:00
7:53 PM,75.0,48.9,40,30.03,10.0,North,6.9,-,N/A,,Clear,350,2013-06-14 23:53:00
8:53 PM,70.0,51.1,51,30.03,10.0,North,4.6,-,N/A,,Clear,360,2013-06-15 00:53:00
9:53 PM,64.0,53.1,67,30.05,10.0,ESE,4.6,-,N/A,,Clear,110,2013-06-15 01:53:00
10:53 PM,62.1,54.0,75,30.07,10.0,ESE,3.5,-,N/A,,Clear,110,2013-06-15 02:53:00
11:53 PM,63.0,55.0,75,30.06,10.0,ESE,3.5,-,N/A,,Clear,120,2013-06-15 03:53:00